Regional Weather Roundup
Issued by NWS Kansas City/Pleasant Hill, MO

Home | Current Version | Previous Version | Graphics & Text | Print | Product List | Glossary Off
Versions: 1 2 3 4 5 6 7 8 9 10 11 12 13 14 15 16 17 18 19 20 21 22 23 24 25 26 27

000
ASUS43 KEAX 281910
RWREAX

WEATHER ROUNDUP FOR EASTERN KANSAS AND NORTHWEST MISSOURI
NATIONAL WEATHER SERVICE KANSAS CITY/PLEASANT HILL MO
100 PM CST TUE FEB 28 2017

KSZ040-057-103>105-MOZ028-029-037-043-282000-
...KANSAS CITY METROPOLITAN AREA...

CITY           SKY/WX    TMP DP  RH WIND       PRES   REMARKS
K.C. INTL      CLOUDY    71  45  39 SW23G29   29.60F
K.C. DOWNTOWN  CLOUDY    73  48  41 SW20G29   29.60F
LEES SUMMIT    CLOUDY    73  52  47 S25G32    29.63F
OLATHE - IXD   CLOUDY    70  49  47 S24G33    29.64F
OLATHE - OJC   CLOUDY    70  52  52 SW17G32   29.63F
LAWRENCE       CLOUDY    72  46  39 S25G31    29.61F

$$

MOZ001>008-011>017-020>025-030>033-038>040-044>046-053-054-282000-
...NORTHERN AND CENTRAL MISSOURI...

CITY           SKY/WX    TMP DP  RH WIND       PRES   REMARKS
ST. JOSEPH     CLOUDY    67  53  61 SW17G23   29.60F
MOSBY          PTCLDY    72  43  35 SW21G32   29.61F
WARRENSBURG    CLOUDY    73  50  43 S20G32    29.64F
WHITEMAN AFB   CLOUDY    74  55  51 SW26G36   29.63F
CLINTON        CLOUDY    75  57  53 SW23G29   29.68F
SEDALIA        CLOUDY    76  54  46 SW30G38   29.67F
WARSAW         NOT AVBL
CHILLICOTHE      N/A     70  55  59 SW10G18   29.61F
KIRKSVILLE     CLOUDY    70  57  63 SW18      29.61F

$$

MOZ041-047>049-056>058-063>065-088>090-097-282000-
...EASTERN AND SOUTHERN MISSOURI...

CITY           SKY/WX    TMP DP  RH WIND       PRES   REMARKS
ST. LOUIS INTL CLOUDY    74  58  57 S14G26    29.73F
SPIRIT OF STL  CLOUDY    72  59  63 S16G25    29.72F
COLUMBIA       PTSUNNY   75  57  53 SW22G40   29.68F
JEFFERSON CITY CLOUDY    76  55  48 SW23G31   29.68F
ROLLA            N/A     71  59  65 S20G25    29.74F
OSAGE BEACH    CLOUDY    76  57  51 SW22G32   29.71F
SPRINGFIELD    CLOUDY    75  59  57 SW30G39   29.76F
BRANSON        MOSUNNY   75  57  53 S18G29    29.83F
JOPLIN         CLOUDY    73  60  63 SW24G33   29.74F
WEST PLAINS    CLOUDY    73  60  63 S14       29.84F

$$

IAZ060-094-KSZ022-034>040-054-083-096-NEZ052-066-093-282000-
...KANSAS...SOUTHEAST NEBRASKA AND IOWA...

CITY           SKY/WX    TMP DP  RH WIND       PRES   REMARKS
TOPEKA         CLOUDY    70  38  31 SW20G29   29.60F
MANHATTAN      CLOUDY    58  34  40 SW8       29.63F
EMPORIA        CLOUDY    69  39  33 SW18      29.63F
CHANUTE        CLOUDY    75  52  44 SW21G33   29.66F
WICHITA        CLOUDY    65  46  50 SW16      29.64F
OMAHA          CLOUDY    47  38  71 NW12      29.62F
LINCOLN        CLOUDY    46  35  65 N12       29.65F
FALLS CITY     CLOUDY    57  38  48 W16       29.62S
LAMONI         CLOUDY    67  52  58 SW18G28   29.57F
DES MOINES     CLOUDY    63  40  42 NW12      29.58F

$$





USA.gov is the U.S. government's official web portal to all federal, state and local government web resources and services.